Flag for Germany Weather past 2 weeks in Alfeld (Leine), Lower Saxony, Germany

Now
45 °F

Passing clouds.


Feels Like: 40 °F
Forecast: 33 / 51 °F
Wind: 8 mph from West

Location: Braunschweig

Current Time: Mar 6, 2015 at 7:13:39 PM

Latest Report: Mar 6, 2015 at 6:20 PM


Visibility: N/A

Pressure: 30.51 "Hg

Humidity: 76%

Dew point: 37 °F

Location of Alfeld (Leine)Location

Historic Weather in Alfeld (Leine) — Graph

°F

Alfeld (Leine) temperature yesterday

Maximum temperature yesterday: 45 °F (at 3:20 PM)
Minimum temperature yesterday: 34 °F (at 6:50 AM)
Average temperature yesterday: 41 °F

Past Weeks' High & Low Weather Summary

 TemperatureHumidityPressure
High52 °F (Feb 26, 3:20 PM)100% (Feb 22, 7:50 AM)30.57 "Hg (Feb 22, 7:50 AM)
Low27 °F (Feb 26, 6:50 AM)47% (Feb 26, 3:20 PM)29.33 "Hg (Feb 21, 9:50 AM)
Average41 °F79%29.90 "Hg
* Reported Feb 19 5:20 PM — Mar 6 5:50 PM, Alfeld (Leine), Weather by CustomWeather, © 2015

Note: Actual official high and low records may vary slightly from our data, if they occured in-between our weather recording intervals... More about our weather records

Advertising

Alfeld (Leine) weather history for previous 24 hours

 ConditionsComfort  
Time TempWeatherWind HumidityBarometerVisibility
5:50 PM
Fri, Mar 6
45 °FPartly sunny.9 mph76%30.51 "HgN/A
5:20 PM45 °FPartly sunny.10 mph76%30.51 "HgN/A
4:50 PM46 °FPartly sunny.9 mph71%30.51 "HgN/A
4:20 PM46 °FSunny.12 mph71%30.51 "Hg10 mi
3:50 PM46 °FPassing clouds.9 mph71%30.51 "HgN/A
3:20 PM46 °FPassing clouds.10 mph71%30.51 "HgN/A
2:50 PM46 °FPassing clouds.14 mph71%30.54 "HgN/A
2:20 PM46 °FSunny.13 mph71%30.51 "Hg10 mi
1:50 PM45 °FSunny.14 mph76%30.51 "Hg10 mi
1:20 PM45 °FSunny.14 mph71%30.54 "Hg10 mi
12:50 PM43 °FPartly sunny.10 mph76%30.54 "HgN/A
12:20 PM43 °FPassing clouds.12 mph81%30.57 "HgN/A
11:50 AM43 °FPartly sunny.10 mph76%30.54 "HgN/A
11:20 AM43 °FPartly sunny.10 mph81%30.54 "HgN/A
10:50 AM41 °FPartly sunny.8 mph81%30.54 "HgN/A
10:20 AM41 °FMostly cloudy.9 mph81%30.54 "HgN/A
9:50 AM41 °FPartly sunny.8 mph81%30.54 "HgN/A
9:20 AM41 °FPartly sunny.9 mph81%30.54 "HgN/A
8:50 AM41 °FPartly sunny.9 mph87%30.54 "HgN/A
8:20 AM41 °FPartly sunny.7 mph87%30.54 "HgN/A
7:50 AM41 °FPartly sunny.8 mph87%30.54 "HgN/A
7:20 AM39 °FMore clouds than sun.8 mph93%30.54 "HgN/A
6:50 AM39 °FClear.9 mph87%30.54 "Hg10 mi
Weather by CustomWeather, © 2015

See weather overviewHow to use our weather pages